Regional Weather Roundup
Issued by NWS

Home | Current Version | Previous Version | Text Only | Print | Product List | Glossary Off
Versions: 1 2 3 4 5 6 7 8 9 10 11 12 13 14 15 16 17 18 19 20 21 22 23 24 25 26 27 28 29 30 31 32 33 34 35 36 37 38 39 40 41 42 43 44 45 46 47 48 49 50

000
ASUS43 KMKX 191100
RWRWI

WISCONSIN REGIONAL WEATHER ROUNDUP
NATIONAL WEATHER SERVICE MILWAUKEE/SULLIVAN WI
600 AM CDT TUE SEP 19 2017

NOTE: "FAIR" INDICATES FEW OR NO CLOUDS BELOW 12,000 FEET WITH NO
SIGNIFICANT WEATHER AND/OR OBSTRUCTIONS TO VISIBILITY.

WIZ001-002-006>008-014>016-023>028-191200-
NORTHWEST WISCONSIN

CITY           SKY/WX    TMP DP  RH WIND       PRES   REMARKS
SUPERIOR ARPT  CLOUDY    57  56  99 E6        29.96S
ASHLAND        CLOUDY    57  54  89 CALM      29.99S
HAYWARD        CLOUDY    58  54  86 SE6       29.97F
SIREN          CLOUDY    59  56  91 SE3       29.95S
CUMBERLAND     CLOUDY    55  54  94 SE6       29.96S
RICE LAKE      CLOUDY    57  56  96 E3        29.98S
CHETEK         CLOUDY    58  57  96 SE7       29.97S
LADYSMITH      CLOUDY    56  55  95 E6        30.00S
EAU CLAIRE     NOT AVBL
MENOMONIE      CLOUDY    59  58  95 E5        29.95F
NEW RICHMOND   NOT AVBL
OSCEOLA        CLOUDY    59  59 100 E8        29.96S
$$

WIZ003>005-009-010-017-018-191200-
NORTH CENTRAL WISCONSIN

CITY           SKY/WX    TMP DP  RH WIND       PRES   REMARKS
MANITOWISH WTR CLOUDY    55  52  92 E7        30.02S
ARBOR VITAE    CLOUDY    57  54  89 SE3       30.03R
WOODRUFF       CLOUDY    57  54  89 SE3       30.03R
RHINELANDER    CLOUDY    52  52 100 E6        30.04R
EAGLE RIVER    CLOUDY    54  50  87 E3        30.03S
LAND O LAKES   CLOUDY    54  52  93 CALM      30.05S
PHILLIPS       CLOUDY    53  53 100 CALM      30.00S
TOMAHAWK         N/A     50  48  92 CALM      30.03R
MEDFORD        CLOUDY    53  51  94 E7        30.01R
MERRILL        NOT AVBL
$$

WIZ029-030-035-036-043>047-191200-
CENTRAL WISCONSIN

CITY           SKY/WX    TMP DP  RH WIND       PRES   REMARKS
WAUSAU         CLOUDY    54  52  93 E6        30.00R
MOSINEE        CLOUDY    54  54 100 E7        30.01F
MARSHFIELD     CLOUDY    55  52  89 E7        30.00R
STEVENS POINT  MOCLDY    54  53  97 E3        30.01S
WAUPACA        CLOUDY    59  54  84 CALM      30.00S
WAUTOMA        PTCLDY    55  53  93 CALM      30.00S
WISC RAPIDS    CLOUDY    58  53  84 E6        30.00S
CAMP DOUGLAS   NOT AVBL
$$

WIZ011>013-019>022-031-037>040-048>050-191200-
NORTHEAST WISCONSIN

CITY           SKY/WX    TMP DP  RH WIND       PRES   REMARKS
ANTIGO         CLOUDY    54  52  93 E8        30.03S
SHAWANO        PTCLDY    59  56  89 NE3       30.01S
OCONTO         CLOUDY    62  57  84 NE5       30.00S
STURGEON BAY   MOCLDY    60  58  92 E8        30.01F
GREEN BAY      CLOUDY    58  57  97 E5        30.00S
MANITOWOC      NOT AVBL
APPLETON       MOCLDY    59  57  94 NE6       29.99S
CLINTONVILLE   PTCLDY    55  52  88 N3        30.01S
OSHKOSH        CLOUDY    61  58  90 NE5       29.99S
$$

WIZ032>034-041-042-053>061-191200-
SOUTHWEST WISCONSIN

CITY           SKY/WX    TMP DP  RH WIND       PRES   REMARKS
LA CROSSE      CLOUDY    60  58  92 SE6       29.95S
SPARTA         CLOUDY    55  54  97 CALM      29.98S
VIROQUA        PTCLDY    55  55 100 E6        29.97S
BOSCOBEL       CLEAR     55  54  96 CALM      29.97R
PRAIRIE DU CHI CLEAR     56  55  94 CALM      29.96R
PLATTEVILLE    CLEAR     57  56  99 E5        29.97S
$$

WIZ056-057-062-063-064-067-068-191200-
SOUTH CENTRAL WISCONSIN

CITY           SKY/WX    TMP DP  RH WIND       PRES   REMARKS
REEDSBURG      CLEAR     56  56 100 CALM      29.98R
BARABOO/DELLS  CLEAR     56  53  91 CALM      29.98S
LONE ROCK      NOT AVBL
MINERAL POINT  CLEAR     59  57  94 E5        29.97S
MADISON        PTCLDY    57  55  93 CALM      29.97S
MIDDLETON      PTCLDY    58  58  98 CALM      29.97F
WATERTOWN      CLOUDY    58  58 100 N3        29.98S
MONROE         CLOUDY    59  55  88 NE5       29.96S
JANESVILLE     CLOUDY    61  61 100 CALM      29.95F
$$

WIZ051-052-058>065-066-070>072-191200-
SOUTHEAST WISCONSIN

CITY           SKY/WX    TMP DP  RH WIND       PRES   REMARKS
MILWAUKEE      CLOUDY    65  63  93 N6        29.96S
WAUKESHA       MOCLDY    59  57  94 CALM      29.98S
MILWAUKEE/TIMM CLOUDY    61  55  82 CALM      29.98S
RACINE         CLOUDY    65  64  97 N5        29.97F
BURLINGTON     CLOUDY    60  60 100 CALM      29.96F
KENOSHA        CLOUDY    64  61  90 N5        29.95F
FOND DU LAC    CLOUDY    55  52  89 CALM      29.99R
SHEBOYGAN      PTCLDY    57  57 100 CALM      29.98F
WEST BEND        N/A     55  55 100 CALM      29.98S
JUNEAU         CLOUDY    56  55  95 CALM      29.99S
$$

LSZ147-162-191200-
LAKE SUPERIOR

STATION/POSITION TIME  TEMP    WIND        PRES    WAVE
                       AIR SEA DIR/SP/G            HT/PER
                 (UTC) (F)     (DEG/KT/KT) (MB)    (FT/S)
W MID LAKE BUOY  0950   57 55  140/  6/  6 1016.0F
DEVILS ISLAND    1000   59     120/  6/  7 1015.4F
PORT WING        0940   58     100/  1/  2 1014.9F
SAXON HARBOR     1030   60     200/  3/  5 1014.6F
$$

LMZ867-665-643>646-191200-
LAKE MICHIGAN

STATION/POSITION TIME  TEMP    WIND        PRES    WAVE
                       AIR SEA DIR/SP/G            HT/PER
                 (UTC) (F)     (DEG/KT/KT) (MB)    (FT/S)
S GREEN BAY BUOY 1030   64 66   90/ 14/ 16 1015.7F
N MID LAKE BUOY  0950   63 64   90/ 14/ 17 1017.7F   2/ 4
NORTHPORT PIER   1040   64     100/ 15/ 18 1016.6F
KEWAUNEE LAKESHO 1024   59      30/  3/  5 1015.2
SHEBOYGAN LAKESH 1000   63      10/  5/  6 1015.0R
PORT WASHINGTON  1030   63     340/  5/  8 1015.6F
ATWATER BUOY     0909   66 67   20/  6/ 10 1014.9S
MILWAUKEE LAKESH 1030   65     330/  4/  5   N/A
S MID LAKE BUOY  0950   67 68   90/ 12/ 12 1014.3R   2/ 3
KENOSHA   LAKESH 1000   67     360/  8/  9 1014.2
$$

TC  - TEMPERATURE IN CELSIUS
VSB - VISIBILITY IN STATUTE MILES
WCI - WIND CHILL INDEX
HX  - HEAT INDEX





USA.gov is the U.S. government's official web portal to all federal, state and local government web resources and services.